Погода в Усун-Кюеле

Россия / Республика Саха (Якутия)     62°52′17″N   130°49′37″E
темп.,
°C
ветер,
м/с
пор.,
м/с
влажн.,
%
обл.,
%
осадки,
мм/ч
давл.,
гПа
погр.,
м
1 марта, пн
пн100:00−28зсз3897100 0.1 1023449
03:00−28з2897100 0.3 1023548
06:00−28з2898100 0.1 1023512
09:00−27з3794100 0.2 1024699
12:00−26з3690100 0.1 1024808
15:00−25зсз3589100 0.2 1024915
18:00−26з2598100 0.1 1025221
21:00−27з2698100 0.2 1025386
2 марта, вт
вт200:00−28з2598100 0.1 1025263
03:00−30з2499100 0.1 1025105
06:00−30з2299100 0.1 102677
09:00−30з249896 0.1 1025171
12:00−28з239199 0.0 1025558
15:00−27зсз2390100 0.1 1025648
18:00−29з1296100 0.0 102519
21:00−30зсз1198100 0.1 102519
3 марта, ср
ср300:00−31зсз1199100 0.1 102419
03:00−31зсз1199100 0.2 102421
06:00−31зсз1299100 0.1 102331
09:00−31зсз1297100 0.1 1022180
12:00−29зсз2291100 0.1 1021445
15:00−28зсз2392100 0.2 1019518
18:00−29зсз2398100 0.1 1019112
21:00−30з2598100 0.1 1018262
4 марта, чт
чт400:00−31з2698100 0.1 1017283
03:00−31з2697100 0.2 1017394
06:00−32з2797100 0.1 1016363
09:00−31з3694100 0.1 1017522
12:00−29з3590100 0.1 1017661
15:00−29зсз3589100 0.1 1017700
18:00−32з2396100 0.0 101956
21:00−35з369894 0.0 102098
5 марта, пт
пт500:00−36з379772 0.0 1021175
03:00−37з389782 0.0 1022204
06:00−39з389787 0.0 1022190
09:00−37зсз379484 0.0 1023296
12:00−32з479287 0.0 1023416
15:00−29з489193 0.0 1023493
18:00−30зсз41193100 0.0 1023473
21:00−31зсз41293100 0.0 1023442